EW2997 Weather Reports


time (UTC)temp
C
wind
direction
speed
KPH
gust
KPH
rain 1hr
cm
rain 24hr
cm
rain mn
cm
humidity
%
barometer
mb
20260904082332 20 132 0.0 0.0 0.00 0.00 0.00 96 1018.4
20260904075329 20 132 0.0 0.0 0.00 0.00 0.00 96 1018.4
20260904072326 19 132 0.0 0.0 0.00 0.00 0.00 96 1017.7
20260904065326 19 181 0.0 0.0 0.00 0.00 0.00 96 1017.4
20260904062322 19 180 1.6 1.6 0.00 0.00 0.00 96 1017.7
20260904055319 19 224 0.0 0.0 0.00 0.00 0.00 95 1017.7
20260904052315 20 185 3.2 3.2 0.00 0.00 0.00 94 1018.7
20260904045311 19 192 0.0 0.0 0.00 0.00 0.00 96 1018.7
20260904042308 20 148 0.0 0.0 0.00 0.00 0.00 96 1018.7
20260904035306 20 246 3.2 3.2 0.10 1.68 1.68 95 1018.7
20260904032306 20 76 1.6 1.6 0.08 1.63 1.63 95 1019.5
20260904025300 20 96 3.2 3.2 0.28 1.50 1.50 94 1021.2
20260904022256 20 114 3.2 3.2 0.10 1.35 1.35 95 1020.8
20260904015254 21 186 0.0 0.0 0.10 1.22 1.22 94 1019.5
20260904012252 21 253 4.8 4.8 0.08 1.19 1.19 88 1019.0
20260904005252 23 4 6.4 6.4 0.03 0.99 0.99 83 1019.5
20260904002250 25 187 0.0 0.0 0.00 0.94 0.94 92 1018.4
20260903235247 25 216 3.2 3.2 0.00 0.94 0.94 91 1018.4
20260903232246 26 216 0.0 0.0 0.00 0.94 0.94 91 1018.4
20260903225246 26 216 0.0 0.0 0.00 0.94 0.94 88 1017.7
20260903222243 28 216 0.0 0.0 0.00 0.94 0.94 75 1018.0
20260903215243 29 226 4.8 4.8 0.00 0.94 0.94 69 1017.4
20260903212238 30 254 3.2 3.2 0.00 0.94 0.94 67 1017.7
20260903205235 29 234 3.2 3.2 0.00 0.94 0.94 67 1017.4
20260903202231 29 204 4.8 6.4 0.00 0.94 0.94 71 1018.0
20260903195228 28 210 3.2 3.2 0.00 0.94 0.94 73 1018.4
20260903192228 28 243 8.0 9.7 0.00 0.94 0.94 74 1018.7
20260903185227 27 192 1.6 1.6 0.00 0.94 0.94 71 1019.5
20260903182226 26 168 4.8 6.4 0.00 0.94 0.94 78 1020.2
20260903175225 24 240 3.2 3.2 0.00 0.94 0.94 86 1020.2
20260903172224 23 216 6.4 6.4 0.00 0.94 0.94 88 1020.5
20260903165220 23 235 8.0 8.0 0.00 0.94 0.94 87 1020.8
20260903162216 21 175 0.0 0.0 0.00 0.94 0.94 94 1021.5
20260903155213 21 206 0.0 0.0 0.03 0.94 0.94 94 1021.9
20260903152211 21 192 0.0 0.0 0.00 0.91 0.91 94 1022.5
20260903145209 20 216 3.2 3.2 0.46 0.91 0.91 95 1022.2
20260903142204 20 176 3.2 3.2 0.43 0.86 0.86 95 1021.5
20260903135159 21 312 1.6 1.6 0.00 0.08 0.08 91 1022.9
20260903132154 21 263 3.2 3.2 0.00 0.08 0.08 93 1021.9
20260903125149 21 195 3.2 3.2 0.00 0.08 0.08 93 1022.2
20260903122148 20 214 0.0 0.0 0.00 0.08 0.08 94 1021.5
20260903115142 20 186 3.2 3.2 0.08 0.08 0.08 95 1021.9
20260903112137 20 203 3.2 3.2 0.03 0.03 0.03 95 1022.2
20260903105137 20 268 4.8 4.8 0.00 0.00 0.00 93 1021.5
20260903102135 20 299 1.6 1.6 0.00 0.00 0.00 92 1022.2
20260903095134 21 84 3.2 3.2 0.00 0.00 0.00 88 1021.5
20260903092133 21 120 0.0 0.0 0.00 0.00 0.00 94 1021.9
20260903085133 21 264 0.0 0.0 0.00 0.00 0.00 97 1021.2